WXM80 ListenWXM80 Stop

You find our weather info also at:

UK Metoffice

WeatherCloud

Weather Underground

Northeastern Weather Network

AWEKAS

Citizen Weather Observer Program (CWOP)

HAMweather, WeatherForYou, PWS Weather


Weather Underground History page Text

Daily Summary for February 7, 2017 Units:  Metric    English   Both
« Previous Day
Next Day »
Daily Weekly Monthly Yearly Custom
  High: Low: Average:
Temperature: 3.8 °C 0.7 °C 2.6 °C
Dew Point: 3.6 °C -0.6 °C 1.7 °C
Humidity: 98 % 85 % 94 %
Wind Speed: 18.3 km/h 0 km/h 7.2 km/h
Wind Gust: 24.1 km/h - -
Wind:- - ENE
Pressure: 1015.8 hPa 1001.9 hPa -
Precipitation: 0 mm    
Historical Graphs
 
 
Tabular Data for February 7, 2017
Time Temperature Dew Point Pressure Wind Wind Speed Wind Gust Humidity Rainfall Rate (Hourly)
00:03 3.2 °C 1.1 °C 1015.8 hPa Calm     86 % 0 mm
00:08 3.2 °C 1.1 °C 1015.5 hPa Calm     86 % 0 mm
00:13 3.1 °C 0.9 °C 1015.5 hPa Calm     86 % 0 mm
00:18 3 °C 0.9 °C 1015.5 hPa Calm     86 % 0 mm
00:23 2.9 °C 0.6 °C 1015.5 hPa Calm     85 % 0 mm
00:28 2.8 °C 0.5 °C 1015.5 hPa Calm     85 % 0 mm
00:33 2.7 °C 0.6 °C 1015.5 hPa Calm     86 % 0 mm
00:38 2.6 °C 0.4 °C 1015.5 hPa Calm     86 % 0 mm
00:43 2.5 °C 0.4 °C 1015.1 hPa Calm     86 % 0 mm
00:48 2.4 °C 0.3 °C 1015.1 hPa Calm     86 % 0 mm
00:53 2.3 °C 0.2 °C 1015.1 hPa Calm     86 % 0 mm
00:58 2.2 °C 0.1 °C 1014.8 hPa Calm     86 % 0 mm
01:03 2.1 °C 0 °C 1014.8 hPa Calm     86 % 0 mm
01:09 2 °C -0.1 °C 1014.8 hPa Calm     86 % 0 mm
01:14 1.9 °C -0.2 °C 1014.8 hPa Calm     86 % 0 mm
01:19 1.8 °C -0.3 °C 1014.8 hPa Calm     86 % 0 mm
01:24 1.7 °C -0.4 °C 1014.8 hPa Calm     86 % 0 mm
01:29 1.7 °C -0.2 °C 1014.8 hPa Calm     87 % 0 mm
01:34 1.7 °C -0.1 °C 1014.4 hPa Calm     88 % 0 mm
01:39 1.7 °C -0.1 °C 1014.4 hPa Calm     88 % 0 mm
01:44 1.7 °C 0.1 °C 1014.4 hPa Calm     89 % 0 mm
01:49 1.7 °C 0.1 °C 1014.4 hPa Calm     89 % 0 mm
01:54 1.7 °C 0.3 °C 1014.4 hPa Calm     90 % 0 mm
01:59 1.7 °C 0.3 °C 1014.4 hPa Calm     90 % 0 mm
02:04 1.7 °C 0.2 °C 1014.4 hPa Calm     90 % 0 mm
02:09 1.7 °C 0.2 °C 1014.4 hPa Calm     90 % 0 mm
02:14 1.7 °C 0.2 °C 1014.4 hPa Calm     90 % 0 mm
02:19 1.6 °C 0.2 °C 1014.1 hPa Calm     90 % 0 mm
02:24 1.6 °C 0.2 °C 1014.1 hPa Calm     90 % 0 mm
02:29 1.6 °C 0.1 °C 1014.1 hPa Calm     90 % 0 mm
02:34 1.6 °C 0.3 °C 1014.1 hPa Calm     91 % 0 mm
02:39 1.6 °C 0.3 °C 1014.1 hPa Calm     91 % 0 mm
02:44 1.6 °C 0.1 °C 1013.8 hPa Calm     90 % 0 mm
02:49 1.6 °C 0.1 °C 1013.8 hPa Calm     90 % 0 mm
02:54 1.5 °C 0.1 °C 1013.8 hPa Calm     90 % 0 mm
02:59 1.5 °C 0.1 °C 1013.8 hPa Calm     90 % 0 mm
03:04 1.5 °C 0.2 °C 1013.8 hPa Calm     91 % 0 mm
03:09 1.5 °C 0.2 °C 1013.8 hPa Calm     91 % 0 mm
03:15 1.4 °C 0.1 °C 1013.4 hPa Calm     91 % 0 mm
03:20 1.4 °C 0.1 °C 1013.8 hPa Calm     91 % 0 mm
03:25 1.4 °C 0.1 °C 1013.4 hPa Calm     91 % 0 mm
03:30 1.3 °C 0 °C 1013.4 hPa Calm     91 % 0 mm
03:35 1.3 °C -0.1 °C 1013.4 hPa Calm     91 % 0 mm
03:40 1.2 °C -0.1 °C 1013.4 hPa Calm     91 % 0 mm
03:45 1.2 °C -0.2 °C 1013.1 hPa Calm     91 % 0 mm
03:50 1.2 °C -0.2 °C 1013.1 hPa Calm     91 % 0 mm
03:55 1.1 °C -0.2 °C 1013.1 hPa Calm     91 % 0 mm
04:00 0.9 °C -0.3 °C 1013.1 hPa Calm     91 % 0 mm
04:05 0.9 °C -0.4 °C 1013.1 hPa Calm     91 % 0 mm
04:10 0.9 °C -0.4 °C 1013.1 hPa Calm     91 % 0 mm
04:15 0.8 °C -0.4 °C 1013.1 hPa Calm     91 % 0 mm
04:20 0.8 °C -0.5 °C 1013.1 hPa Calm     91 % 0 mm
04:25 0.8 °C -0.5 °C 1013.1 hPa Calm     91 % 0 mm
04:30 0.8 °C -0.5 °C 1012.8 hPa Calm     91 % 0 mm
04:35 0.7 °C -0.6 °C 1013.1 hPa Calm     91 % 0 mm
04:38 0.7 °C -0.6 °C 1013.1 hPa Calm     91 % 0 mm
04:43 0.7 °C -0.4 °C 1013.1 hPa Calm     92 % 0 mm
04:48 0.8 °C -0.4 °C 1013.1 hPa Calm     92 % 0 mm
04:53 0.8 °C -0.3 °C 1012.8 hPa Calm     92 % 0 mm
04:58 0.9 °C -0.1 °C 1012.8 hPa Calm     93 % 0 mm
05:03 1 °C 0 °C 1012.8 hPa Calm     93 % 0 mm
05:08 1.1 °C 0.1 °C 1012.8 hPa Calm     93 % 0 mm
05:13 1.2 °C 0.2 °C 1012.8 hPa Calm     93 % 0 mm
05:18 1.3 °C 0.3 °C 1012.8 hPa Calm     93 % 0 mm
05:23 1.3 °C 0.3 °C 1012.8 hPa Calm     93 % 0 mm
05:28 1.4 °C 0.4 °C 1012.8 hPa Calm     93 % 0 mm
05:33 1.4 °C 0.6 °C 1012.8 hPa Calm     94 % 0 mm
05:38 1.6 °C 0.7 °C 1012.8 hPa Calm     94 % 0 mm
05:43 1.7 °C 0.8 °C 1012.8 hPa Calm     94 % 0 mm
05:48 1.8 °C 0.9 °C 1012.8 hPa Calm     94 % 0 mm
05:53 1.9 °C 1.1 °C 1012.8 hPa Calm     94 % 0 mm
05:58 2 °C 1.1 °C 1012.8 hPa SSW 2.4 km/h 3.2 km/h 94 % 0 mm
06:03 2.1 °C 1.3 °C 1012.8 hPa NW 3.2 km/h 4.8 km/h 94 % 0 mm
06:08 2.2 °C 1.6 °C 1013.1 hPa Calm   1.6 km/h 95 % 0 mm
06:13 2.4 °C 1.7 °C 1013.1 hPa Calm   1.9 km/h 95 % 0 mm
06:18 2.5 °C 1.8 °C 1013.1 hPa Calm     95 % 0 mm
06:23 2.6 °C 1.8 °C 1013.1 hPa NNW 1.6 km/h 3.2 km/h 95 % 0 mm
06:28 2.7 °C 1.9 °C 1013.1 hPa Calm   3.2 km/h 95 % 0 mm
06:33 2.7 °C 2 °C 1013.1 hPa ENE 1.3 km/h 3.7 km/h 95 % 0 mm
06:38 2.8 °C 2.1 °C 1013.1 hPa ENE 1.6 km/h 8 km/h 95 % 0 mm
06:43 2.9 °C 2.2 °C 1013.1 hPa NE 3.2 km/h 9.7 km/h 95 % 0 mm
06:48 3.1 °C 2.3 °C 1013.1 hPa ENE 4.8 km/h 12.9 km/h 95 % 0 mm
06:53 3.1 °C 2.3 °C 1012.8 hPa ENE 6.6 km/h 13 km/h 95 % 0 mm
06:58 3.1 °C 2.4 °C 1012.8 hPa ENE 4.5 km/h 9.3 km/h 95 % 0 mm
07:03 3.2 °C 2.3 °C 1012.8 hPa ENE 4 km/h 13 km/h 94 % 0 mm
07:08 3.2 °C 2.4 °C 1012.8 hPa ENE 5.5 km/h 5.6 km/h 95 % 0 mm
07:13 3.2 °C 2.4 °C 1012.8 hPa East 3.9 km/h 7.4 km/h 95 % 0 mm
07:19 3.2 °C 2.5 °C 1013.1 hPa East 5.1 km/h 7.4 km/h 95 % 0.25 mm
07:24 3.2 °C 2.5 °C 1013.1 hPa ENE 3.2 km/h 5.6 km/h 95 % 0.25 mm
07:29 3.2 °C 2.5 °C 1013.1 hPa ENE 5.1 km/h 7.4 km/h 95 % 0.25 mm
07:34 3.3 °C 2.6 °C 1013.1 hPa East 6.6 km/h 9.7 km/h 95 % 0.25 mm
07:39 3.2 °C 2.5 °C 1012.8 hPa East 8.7 km/h 13 km/h 95 % 0.51 mm
07:44 3.2 °C 2.4 °C 1012.8 hPa East 9.5 km/h 14.5 km/h 95 % 0.51 mm
07:49 3.1 °C 2.2 °C 1013.1 hPa East 4.5 km/h 11.1 km/h 94 % 0.51 mm
07:54 3.1 °C 2.2 °C 1013.1 hPa ENE 9.8 km/h 14.5 km/h 94 % 0.51 mm
07:59 2.9 °C 2.1 °C 1013.1 hPa ENE 12.4 km/h 16.7 km/h 94 % 0.51 mm
08:04 2.9 °C 2 °C 1012.8 hPa East 11.3 km/h 13 km/h 94 % 0.51 mm
08:09 2.8 °C 1.9 °C 1013.1 hPa ENE 10.3 km/h 11.3 km/h 94 % 0.51 mm
08:14 2.8 °C 1.9 °C 1013.1 hPa ENE 8.5 km/h 11.1 km/h 94 % 0.51 mm
08:19 2.8 °C 1.9 °C 1013.4 hPa ENE 5.8 km/h 11.3 km/h 94 % 0.25 mm
08:24 2.8 °C 1.9 °C 1013.1 hPa ENE 10 km/h 13 km/h 94 % 0.25 mm
08:29 2.8 °C 2.1 °C 1013.1 hPa ENE 6.1 km/h 7.4 km/h 95 % 0.25 mm
08:34 2.8 °C 2.1 °C 1013.1 hPa ENE 8.5 km/h 14.8 km/h 95 % 0.25 mm
08:39 2.8 °C 2.1 °C 1013.4 hPa ENE 6.1 km/h 11.1 km/h 95 % 0 mm
08:44 2.8 °C 1.9 °C 1013.1 hPa ENE 9.8 km/h 18.5 km/h 94 % 0 mm
08:49 2.7 °C 1.8 °C 1013.1 hPa ENE 10.5 km/h 13 km/h 94 % 0 mm
08:54 2.7 °C 1.8 °C 1013.1 hPa NE 9.5 km/h 14.8 km/h 94 % 0 mm
08:59 2.7 °C 2 °C 1013.4 hPa NE 8.7 km/h 14.8 km/h 95 % 0.25 mm
09:05 2.8 °C 1.9 °C 1013.4 hPa ENE 12.7 km/h 16.7 km/h 94 % 0.25 mm
09:10 2.8 °C 1.9 °C 1013.4 hPa ENE 10.9 km/h 14.8 km/h 94 % 0.51 mm
09:15 2.7 °C 1.8 °C 1013.4 hPa ENE 8.7 km/h 14.8 km/h 94 % 0.51 mm
09:20 2.7 °C 1.8 °C 1013.8 hPa ENE 9.5 km/h 16.7 km/h 94 % 0.51 mm
09:25 2.6 °C 1.9 °C 1013.8 hPa ENE 10.8 km/h 14.5 km/h 95 % 0.51 mm
09:30 2.6 °C 1.7 °C 1014.1 hPa NE 9.2 km/h 14.8 km/h 94 % 0.51 mm
09:35 2.5 °C 1.6 °C 1013.8 hPa ENE 8.7 km/h 14.8 km/h 94 % 0.51 mm
09:40 2.5 °C 1.6 °C 1013.8 hPa ENE 8.9 km/h 13 km/h 94 % 0.51 mm
09:45 2.4 °C 1.6 °C 1013.4 hPa ENE 13 km/h 16.7 km/h 94 % 0.51 mm
09:50 2.4 °C 1.7 °C 1013.4 hPa East 15 km/h 18.5 km/h 95 % 0.51 mm
09:55 2.5 °C 1.8 °C 1013.4 hPa East 13 km/h 17.7 km/h 95 % 0.51 mm
10:00 2.5 °C 1.8 °C 1013.4 hPa ENE 9.7 km/h 17.7 km/h 95 % 0.25 mm
10:05 2.6 °C 1.9 °C 1013.4 hPa East 14.5 km/h 22.2 km/h 95 % 0.25 mm
10:10 2.6 °C 1.9 °C 1013.4 hPa East 14.5 km/h 22.2 km/h 95 % 0 mm
10:15 2.7 °C 1.9 °C 1013.8 hPa NE 12.4 km/h 20.4 km/h 95 % 0 mm
10:20 2.6 °C 1.9 °C 1013.8 hPa ENE 13 km/h 19.3 km/h 95 % 0 mm
10:25 2.6 °C 1.9 °C 1013.4 hPa ENE 13.7 km/h 18.5 km/h 95 % 0 mm
10:30 2.6 °C 1.9 °C 1013.4 hPa East 12.6 km/h 19.3 km/h 95 % 0 mm
10:35 2.6 °C 1.8 °C 1013.4 hPa NE 11.1 km/h 16.7 km/h 95 % 0 mm
10:40 2.6 °C 1.9 °C 1013.4 hPa ENE 14.5 km/h 18.5 km/h 95 % 0 mm
10:45 2.6 °C 1.9 °C 1013.1 hPa ENE 13.4 km/h 16.7 km/h 95 % 0 mm
10:50 2.6 °C 1.7 °C 1013.1 hPa ENE 18.3 km/h 24.1 km/h 94 % 0 mm
10:55 2.6 °C 1.7 °C 1013.1 hPa NE 16.6 km/h 24.1 km/h 94 % 0 mm
11:01 2.6 °C 1.7 °C 1013.1 hPa ENE 12.4 km/h 22.2 km/h 94 % 0 mm
11:06 2.6 °C 1.7 °C 1013.1 hPa ENE 12.4 km/h 20.4 km/h 94 % 0 mm
11:12 2.6 °C 1.7 °C 1013.1 hPa ENE 15.1 km/h 20.9 km/h 94 % 0 mm
11:17 2.5 °C 1.6 °C 1013.1 hPa East 15.4 km/h 24.1 km/h 94 % 0 mm
11:22 2.4 °C 1.4 °C 1013.4 hPa NE 12.1 km/h 20.4 km/h 93 % 0 mm
11:27 2.4 °C 1.4 °C 1013.8 hPa NE 10.5 km/h 18.5 km/h 93 % 0 mm
11:32 2.3 °C 1.3 °C 1013.8 hPa NE 10.5 km/h 13 km/h 93 % 0.25 mm
11:37 2.3 °C 1.3 °C 1013.1 hPa NE 13.4 km/h 16.7 km/h 93 % 0.51 mm
11:42 2.3 °C 1.4 °C 1013.1 hPa ENE 15 km/h 19.3 km/h 94 % 0.51 mm
11:47 2.2 °C 1.3 °C 1012.8 hPa East 13.2 km/h 18.5 km/h 94 % 0.51 mm
11:52 2.2 °C 1.3 °C 1012.8 hPa East 15.3 km/h 18.5 km/h 94 % 0.76 mm
11:57 2.2 °C 1.3 °C 1012.4 hPa ENE 11.1 km/h 13 km/h 94 % 0.76 mm
12:02 2.1 °C 1.2 °C 1012.1 hPa ENE 14.8 km/h 18.5 km/h 94 % 1.02 mm
12:07 2 °C 1.1 °C 1011.7 hPa ENE 13.7 km/h 17.7 km/h 94 % 1.27 mm
12:12 2 °C 1.1 °C 1011.7 hPa ENE 16.7 km/h 20.4 km/h 94 % 1.52 mm
12:16 2 °C 1.1 °C 1011.7 hPa East 11.7 km/h 18.5 km/h 94 % 1.52 mm
12:21 2 °C 1.3 °C 1011.4 hPa ENE 14.6 km/h 22.2 km/h 95 % 1.78 mm
12:26 2 °C 1.3 °C 1011.1 hPa ENE 14.5 km/h 20.4 km/h 95 % 2.03 mm
12:31 2 °C 1.3 °C 1010.4 hPa ENE 14.6 km/h 19.3 km/h 95 % 2.03 mm
12:36 2 °C 1.3 °C 1011.1 hPa ENE 10.8 km/h 18.5 km/h 95 % 2.03 mm
12:41 2.1 °C 1.3 °C 1011.1 hPa East 15.3 km/h 22.2 km/h 95 % 2.03 mm
12:46 2.1 °C 1.3 °C 1011.1 hPa East 12.9 km/h 18.5 km/h 95 % 2.03 mm
12:51 2.1 °C 1.3 °C 1010.7 hPa ENE 13.5 km/h 20.4 km/h 95 % 1.78 mm
12:56 2.1 °C 1.6 °C 1010.7 hPa ENE 14.6 km/h 22.2 km/h 96 % 1.78 mm
13:01 2.2 °C 1.6 °C 1010.4 hPa ENE 14.6 km/h 20.4 km/h 96 % 1.52 mm
13:06 2.2 °C 1.7 °C 1010.4 hPa ENE 14.5 km/h 20.4 km/h 96 % 1.27 mm
13:11 2.3 °C 1.7 °C 1010.4 hPa ENE 11.1 km/h 16.7 km/h 96 % 1.02 mm
13:16 2.3 °C 1.8 °C 1010.4 hPa East 15.9 km/h 20.4 km/h 96 % 1.02 mm
13:21 2.4 °C 1.8 °C 1010.4 hPa ENE 14.8 km/h 16.7 km/h 96 % 0.76 mm
13:26 2.4 °C 1.9 °C 1010 hPa ENE 12.4 km/h 18.5 km/h 96 % 0.51 mm
13:31 2.6 °C 2 °C 1010 hPa ENE 14.8 km/h 22.2 km/h 96 % 0.25 mm
13:36 2.6 °C 2 °C 1010 hPa ENE 12.2 km/h 19.3 km/h 96 % 0 mm
13:41 2.6 °C 2 °C 1010 hPa NNE 10.8 km/h 16.7 km/h 96 % 0 mm
13:46 2.5 °C 1.9 °C 1010 hPa East 12.4 km/h 20.4 km/h 96 % 0 mm
13:51 2.5 °C 1.9 °C 1010 hPa ENE 12.4 km/h 20.9 km/h 96 % 0 mm
13:56 2.4 °C 1.7 °C 1009.7 hPa ENE 15.6 km/h 20.9 km/h 95 % 0 mm
14:01 2.3 °C 1.6 °C 1009.7 hPa ENE 16.4 km/h 20.4 km/h 95 % 0 mm
14:06 2.3 °C 1.8 °C 1010 hPa East 10.8 km/h 16.7 km/h 96 % 0 mm
14:12 2.3 °C 1.8 °C 1010 hPa ENE 12.7 km/h 16.7 km/h 96 % 0 mm
14:17 2.4 °C 1.8 °C 1010 hPa ENE 8.7 km/h 18.5 km/h 96 % 0 mm
14:22 2.4 °C 1.8 °C 1010.4 hPa NE 8.2 km/h 13 km/h 96 % 0 mm
14:27 2.4 °C 1.8 °C 1010.4 hPa ENE 7.1 km/h 11.3 km/h 96 % 0 mm
14:32 2.4 °C 1.8 °C 1010.4 hPa ENE 10.5 km/h 14.8 km/h 96 % 0 mm
14:37 2.4 °C 1.8 °C 1010 hPa NE 12.7 km/h 16.7 km/h 96 % 0 mm
14:42 2.4 °C 1.8 °C 1010 hPa ENE 10.5 km/h 16.7 km/h 96 % 0 mm
14:47 2.4 °C 1.9 °C 1009.7 hPa ENE 13.5 km/h 18.5 km/h 96 % 0 mm
14:52 2.4 °C 1.9 °C 1009.7 hPa ENE 9 km/h 18.5 km/h 96 % 0 mm
14:57 2.4 °C 1.9 °C 1009.7 hPa NE 8.7 km/h 18.5 km/h 96 % 0 mm
15:02 2.5 °C 1.9 °C 1009.7 hPa East 12.4 km/h 16.7 km/h 96 % 0 mm
15:07 2.6 °C 2 °C 1009.4 hPa ENE 10 km/h 16.7 km/h 96 % 0 mm
15:12 2.6 °C 2 °C 1009.7 hPa ENE 8.9 km/h 14.8 km/h 96 % 0 mm
15:17 2.6 °C 2 °C 1009.7 hPa NE 9.2 km/h 14.8 km/h 96 % 0 mm
15:22 2.6 °C 2 °C 1010 hPa ENE 9 km/h 16.7 km/h 96 % 0 mm
15:27 2.6 °C 2 °C 1010 hPa NE 9 km/h 13 km/h 96 % 0 mm
15:32 2.6 °C 2 °C 1010 hPa ENE 7.4 km/h 11.1 km/h 96 % 0 mm
15:37 2.6 °C 2 °C 1010 hPa ENE 9 km/h 16.7 km/h 96 % 0 mm
15:42 2.6 °C 2 °C 1010 hPa ENE 11.4 km/h 14.8 km/h 96 % 0 mm
15:47 2.6 °C 2 °C 1010 hPa ENE 9.8 km/h 14.8 km/h 96 % 0 mm
15:52 2.6 °C 2 °C 1009.7 hPa ENE 10.3 km/h 13 km/h 96 % 0 mm
15:57 2.6 °C 2.1 °C 1009.4 hPa ENE 10.8 km/h 14.8 km/h 96 % 0 mm
16:02 2.6 °C 2.1 °C 1009.4 hPa NE 9 km/h 13 km/h 96 % 0 mm
16:07 2.7 °C 2.1 °C 1009 hPa ENE 8.5 km/h 18.5 km/h 96 % 0 mm
16:13 2.7 °C 2.1 °C 1008.7 hPa East 8.9 km/h 13 km/h 96 % 0 mm
16:18 2.7 °C 2.2 °C 1008.7 hPa East 9.8 km/h 13 km/h 96 % 0 mm
16:23 2.7 °C 2.2 °C 1008.7 hPa ENE 11.3 km/h 16.7 km/h 96 % 0 mm
16:28 2.7 °C 2.2 °C 1008.7 hPa ENE 10.3 km/h 14.8 km/h 96 % 0 mm
16:33 2.7 °C 2.2 °C 1008.7 hPa ENE 9 km/h 11.3 km/h 96 % 0 mm
16:38 2.7 °C 2.2 °C 1008.7 hPa ENE 14.3 km/h 18.5 km/h 96 % 0 mm
16:43 2.8 °C 2.2 °C 1009 hPa ENE 9.7 km/h 14.5 km/h 96 % 0 mm
16:48 2.8 °C 2.2 °C 1009 hPa ENE 14.2 km/h 18.5 km/h 96 % 0 mm
16:53 2.8 °C 2.2 °C 1008.7 hPa ENE 9.5 km/h 14.8 km/h 96 % 0 mm
16:58 2.8 °C 2.2 °C 1009 hPa ENE 9.7 km/h 16.7 km/h 96 % 0 mm
17:03 2.8 °C 2.4 °C 1008.7 hPa ENE 11.9 km/h 14.8 km/h 97 % 0 mm
17:08 2.8 °C 2.4 °C 1008.7 hPa East 7.9 km/h 13 km/h 97 % 0 mm
17:13 2.9 °C 2.4 °C 1009 hPa ENE 9.7 km/h 12.9 km/h 97 % 0 mm
17:14 2.9 °C 2.4 °C 1009 hPa ENE 9 km/h 14.5 km/h 97 % 0 mm
17:19 2.9 °C 2.4 °C 1009.4 hPa ENE 9.7 km/h 14.8 km/h 96 % 0 mm
17:24 2.9 °C 2.4 °C 1009.4 hPa NE 7.6 km/h 11.1 km/h 96 % 0 mm
17:29 3 °C 2.4 °C 1009.4 hPa ENE 8.2 km/h 13 km/h 96 % 0 mm
17:34 3 °C 2.4 °C 1009 hPa ENE 8.4 km/h 12.9 km/h 96 % 0 mm
17:38 3 °C 2.4 °C 1008.4 hPa ENE 9.7 km/h 12.9 km/h 96 % 0 mm
17:43 3 °C 2.4 °C 1008.4 hPa ENE 8.5 km/h 13 km/h 96 % 0 mm
17:48 3.1 °C 2.5 °C 1008.4 hPa ENE 8 km/h 14.5 km/h 96 % 0 mm
17:53 3.1 °C 2.5 °C 1008 hPa ENE 8 km/h 16.1 km/h 96 % 0 mm
17:58 3 °C 2.4 °C 1008 hPa ENE 8.5 km/h 13 km/h 96 % 0 mm
18:03 2.9 °C 2.4 °C 1008 hPa ENE 8.5 km/h 16.7 km/h 96 % 0 mm
18:08 2.9 °C 2.4 °C 1008 hPa ENE 13.8 km/h 18.5 km/h 97 % 0 mm
18:14 2.9 °C 2.4 °C 1008 hPa ENE 10.5 km/h 14.8 km/h 97 % 0 mm
18:19 2.9 °C 2.4 °C 1008 hPa ENE 11.1 km/h 18.5 km/h 97 % 0 mm
18:24 2.9 °C 2.4 °C 1008 hPa ENE 8.4 km/h 14.8 km/h 97 % 0 mm
18:29 2.9 °C 2.5 °C 1008 hPa ENE 11.3 km/h 14.8 km/h 97 % 0 mm
18:34 3 °C 2.6 °C 1007.7 hPa ENE 9.8 km/h 13 km/h 97 % 0 mm
18:39 3 °C 2.6 °C 1007.7 hPa East 14.5 km/h 20.4 km/h 97 % 0 mm
18:44 2.9 °C 2.5 °C 1007.7 hPa ENE 15.1 km/h 18.5 km/h 97 % 0 mm
18:49 2.9 °C 2.4 °C 1007.7 hPa ENE 10.1 km/h 14.5 km/h 97 % 0 mm
18:54 2.8 °C 2.4 °C 1007.3 hPa ENE 10.3 km/h 16.7 km/h 97 % 0 mm
18:59 2.8 °C 2.4 °C 1007.3 hPa ENE 11.9 km/h 16.7 km/h 97 % 0 mm
19:04 2.8 °C 2.3 °C 1007.3 hPa ENE 11.3 km/h 14.8 km/h 96 % 0 mm
19:09 2.8 °C 2.4 °C 1007.3 hPa East 12.2 km/h 14.8 km/h 97 % 0 mm
19:14 2.8 °C 2.4 °C 1007.7 hPa ENE 14.2 km/h 18.5 km/h 97 % 0 mm
19:19 2.8 °C 2.4 °C 1007.3 hPa ENE 7.6 km/h 18.5 km/h 97 % 0 mm
19:24 2.8 °C 2.4 °C 1007.3 hPa ENE 11.1 km/h 12.9 km/h 97 % 0 mm
19:29 2.8 °C 2.4 °C 1007.3 hPa NE 11.4 km/h 14.8 km/h 97 % 0 mm
19:34 2.8 °C 2.4 °C 1007.3 hPa ENE 10.8 km/h 14.8 km/h 97 % 0 mm
19:39 2.8 °C 2.4 °C 1007 hPa ENE 8.4 km/h 13 km/h 97 % 0 mm
19:44 2.9 °C 2.4 °C 1007 hPa ENE 12.1 km/h 16.7 km/h 97 % 0 mm
19:49 2.9 °C 2.5 °C 1006.7 hPa East 11.3 km/h 14.8 km/h 97 % 0 mm
19:54 3 °C 2.6 °C 1006.7 hPa East 11.6 km/h 13 km/h 97 % 0 mm
19:59 3.1 °C 2.6 °C 1006.7 hPa ENE 11.9 km/h 13 km/h 97 % 0 mm
20:04 3.1 °C 2.6 °C 1006.3 hPa ENE 11.4 km/h 16.7 km/h 97 % 0 mm
20:09 3.1 °C 2.6 °C 1006.7 hPa ENE 9.2 km/h 14.5 km/h 97 % 0 mm
20:14 3.1 °C 2.7 °C 1006.3 hPa East 9.2 km/h 13 km/h 97 % 0 mm
20:19 3.2 °C 2.7 °C 1006.3 hPa ENE 8.2 km/h 13 km/h 97 % 0 mm
20:25 3.2 °C 2.7 °C 1006 hPa East 11.3 km/h 13 km/h 97 % 0 mm
20:30 3.2 °C 2.7 °C 1006 hPa East 9.3 km/h 13 km/h 97 % 0 mm
20:35 3.2 °C 2.7 °C 1006 hPa East 7.9 km/h 11.1 km/h 97 % 0 mm
20:40 3.2 °C 2.8 °C 1005.6 hPa ENE 10.3 km/h 13 km/h 97 % 0 mm
20:45 3.2 °C 2.8 °C 1005.6 hPa East 11.3 km/h 14.8 km/h 97 % 0 mm
20:50 3.3 °C 2.8 °C 1005.3 hPa East 10.9 km/h 14.8 km/h 97 % 0 mm
20:55 3.3 °C 2.8 °C 1005.3 hPa East 9.2 km/h 11.1 km/h 97 % 0 mm
21:00 3.3 °C 2.9 °C 1005.3 hPa ENE 9.2 km/h 14.5 km/h 97 % 0 mm
21:05 3.3 °C 2.9 °C 1005.3 hPa ENE 8.2 km/h 13 km/h 97 % 0 mm
21:10 3.3 °C 2.9 °C 1005 hPa ENE 10.9 km/h 16.7 km/h 97 % 0 mm
21:16 3.4 °C 2.9 °C 1005.3 hPa ENE 9 km/h 13 km/h 97 % 0 mm
21:21 3.4 °C 2.9 °C 1005 hPa ENE 9.3 km/h 13 km/h 97 % 0 mm
21:26 3.4 °C 3 °C 1005 hPa East 8.9 km/h 11.1 km/h 97 % 0 mm
21:31 3.4 °C 3 °C 1005 hPa East 9 km/h 16.7 km/h 97 % 0 mm
21:36 3.4 °C 3 °C 1005 hPa East 9.8 km/h 11.3 km/h 97 % 0 mm
21:41 3.4 °C 3 °C 1005 hPa ENE 6.4 km/h 11.3 km/h 97 % 0 mm
21:46 3.5 °C 3.1 °C 1004.6 hPa ENE 6.9 km/h 13 km/h 97 % 0 mm
21:51 3.5 °C 3.1 °C 1004.3 hPa East 10.3 km/h 14.8 km/h 97 % 0 mm
21:56 3.5 °C 3.1 °C 1004.3 hPa East 9 km/h 13 km/h 97 % 0 mm
22:01 3.5 °C 3.1 °C 1004.3 hPa East 9.8 km/h 13 km/h 97 % 0 mm
22:06 3.6 °C 3.1 °C 1004.3 hPa East 10.8 km/h 13 km/h 97 % 0 mm
22:11 3.6 °C 3.2 °C 1003.9 hPa East 8.7 km/h 11.1 km/h 97 % 0 mm
22:16 3.6 °C 3.2 °C 1003.9 hPa East 8.2 km/h 9.3 km/h 97 % 0 mm
22:21 3.6 °C 3.2 °C 1003.9 hPa East 5 km/h 9.3 km/h 97 % 0 mm
22:26 3.6 °C 3.2 °C 1003.9 hPa East 4.7 km/h 8 km/h 97 % 0 mm
22:31 3.7 °C 3.2 °C 1003.6 hPa East 7.7 km/h 8 km/h 97 % 0 mm
22:36 3.7 °C 3.2 °C 1003.6 hPa East 6.8 km/h 9.3 km/h 97 % 0 mm
22:37 3.7 °C 3.2 °C 1003.6 hPa East 6.1 km/h 7.4 km/h 97 % 0 mm
22:42 3.7 °C 3.3 °C 1003.3 hPa East 5 km/h 9.3 km/h 97 % 0 mm
22:47 3.7 °C 3.4 °C 1003.3 hPa East 6 km/h 8 km/h 98 % 0 mm
22:52 3.7 °C 3.4 °C 1002.9 hPa East 6.3 km/h 7.4 km/h 98 % 0 mm
22:57 3.8 °C 3.5 °C 1002.9 hPa East 3.9 km/h 8 km/h 98 % 0 mm
23:02 3.8 °C 3.5 °C 1002.9 hPa East 2.3 km/h 5.6 km/h 98 % 0 mm
23:07 3.8 °C 3.5 °C 1002.9 hPa ENE 3.1 km/h 5.6 km/h 98 % 0 mm
23:12 3.8 °C 3.5 °C 1002.9 hPa ENE 3.4 km/h 5.6 km/h 98 % 0 mm
23:17 3.8 °C 3.5 °C 1002.9 hPa ENE 4.8 km/h 5.6 km/h 98 % 0 mm
23:22 3.8 °C 3.5 °C 1002.6 hPa ENE 3.9 km/h 5.6 km/h 98 % 0 mm
23:27 3.8 °C 3.5 °C 1002.6 hPa ENE 2.6 km/h 5.6 km/h 98 % 0 mm
23:28 3.8 °C 3.5 °C 1002.6 hPa ENE 2.6 km/h 5.6 km/h 98 % 0 mm
23:33 3.8 °C 3.5 °C 1002.3 hPa ENE 5.3 km/h 6.4 km/h 98 % 0 mm
23:38 3.8 °C 3.5 °C 1002.3 hPa East 3.1 km/h 5.6 km/h 98 % 0 mm
23:43 3.8 °C 3.6 °C 1001.9 hPa ENE 2.1 km/h 3.7 km/h 98 % 0 mm
23:48 3.8 °C 3.6 °C 1001.9 hPa East 3.2 km/h 8 km/h 98 % 0 mm
23:53 3.8 °C 3.6 °C 1001.9 hPa ENE 5.1 km/h 6.4 km/h 98 % 0 mm
23:58 3.8 °C 3.6 °C 1001.9 hPa NE 6.6 km/h 7.4 km/h 98 % 0 mm
Crab Meadow Weather
Compliments of Weather Underground - 3 mb

Script developed by  Jim McMurry - jmcmurry@mwt.net Adapted for the template by  Wim van der Kuil - Leuven-Template.eu

Weather Terms: Degree Day - Gauges the amount of heating or cooling needed for a building using 65 degrees as a baseline. To compute degree days, the average temperature for a day is taken and referenced to 65. An average temperature of 50 yields 15 heating degree days, while an average temperature of 75 would yield 10 cooling degree days.